星链-35621(STARLINK-35621)

导读 | 豆包AI

STARLINK-35621是美国SpaceX星链星座的一员,于2025年10月25日发射升空。星链星座旨在构建全球卫星互联网,为全球偏远地区、海洋空域等提供高速低延迟网络服务,这颗卫星延续星座组网逻辑,补充完善星座覆盖能力,服务全球互联网接入需求。

基本信息
目录编号:
66156
目录名称:
STARLINK-35621
国际标识:
2025-240L
轨道中心:
EARTH
卫星名称:
星链-35621
卫星全名:
星链-35621(STARLINK-35621)
卫星状态:
在轨 (已飞行212 天)
发射日期:
2025-10-25 UTC
国别 :
美国 (US)
星等 :
--
轨道信息
数据来源 国际轨道数据
星历时间: 2026-05-25T11:56:37+0800
6小时前
查看轨道信息
半长轴: 6853.334km
偏心率: 0.0001328
轨道倾角: 53.160°
近地点辐角 85.786°
升交点赤经 67.838°
平近点角 274.329°
近地点: 474.286km
远地点: 476.108km
周期: 94.105分钟
每日圈数: 15.302062
详细信息
固有亮度:
5
最大亮度:
2.5
卫星平台:
Starlink V1.0
覆盖范围:
全球
运营商:
太空探索技术公司
运营商所在国:
美国
制造商(研发单位):
太空探索技术公司
制造商所在国:
美国
使用方式:
暂无
卫星简介
Starlink 计划是 SpaceX 推出的全球卫星互联网项目,通过发射低轨道卫星,为全球尤其是偏远地区提供高速、低延迟的互联网服务。自 2019 年起,Starlink 已部署数千颗卫星,旨在缩小全球数字鸿沟,推动互联网普及。该项目还为军事、航空等行业提供通信支持,带来广泛经济效益。
2D轨道图
3D轨道图
轨道高度分析图
轨道倾角分析图
轨道综合分析图
查看轨道综合分析图